Vertical_Velocity
-1 -1 -6 -1 0 -4 0 -3 -1 -2 0 -0 -1 -1 -1 -0 1 -0 -1 2 2 -3 1 0 -1 -4 1 1 4 7 1 3 3 6 4 5 3 -1 6 5 7 2 -6 3 -2 -5 1
-2 -6 -4 -0 -2 -1 -1 -4 -1 -2 0 1 -2 0 -1 -0 0 0 1 1 -1 -1 0 -1 -4 -3 3 0 0 -0 6 0 -4 -9 -7 -3 -1 6 6 2 -2 -0 -3 -2 -0 -1 1
-3 -7 -6 -2 1 -2 -1 -5 -1 -1 0 -1 -0 -1 -0 -3 -1 -0 0 -1 1 2 -2 -1 -2 1 4 2 4 2 -9 0 1 -0 -2 0 -5 2 1 -4 -2 1 2 8 6 4 6
-5 -4 -8 -1 -2 -2 -2 -2 0 -1 -0 -0 -3 -2 -2 -1 -2 -0 0 2 2 1 -0 0 -1 0 2 3 4 -1 -1 -2 -8 6 -0 0 -2 -5 0 3 5 -0 5 0 -0 2 4
-1 -3 -4 -4 -5 -1 -5 -2 -2 1 -1 -3 -3 0 -0 -2 1 1 2 -1 -2 -1 -0 -2 3 2 3 -2 4 7 -1 -1 6 7 3 1 1 2 2 -2 -6 -0 -2 -8 -12 2 3
1 -4 -1 -3 -2 -2 -3 -2 -1 0 -2 -1 -2 -0 -2 2 2 -0 -1 -1 2 1 1 3 2 1 4 3 9 4 6 9 4 -2 6 -3 -2 -5 -2 -1 2 1 -5 1 4 3 -3
0 -4 -1 -2 -4 -1 1 -5 2 0 -3 -4 1 -3 1 3 1 1 8 -0 3 3 6 7 -1 2 -1 2 -0 1 1 1 4 5 2 -1 -3 1 6 4 -2 -4 -1 -2 -1 -1 -1
-4 -0 -2 -2 -3 -4 2 -4 3 2 -3 -4 -1 1 1 2 -1 0 -2 -2 1 -11 -3 1 3 2 5 -4 3 1 -1 0 4 3 -1 0 -3 0 -1 -4 2 -0 1 -1 0 4 2
1 -1 -5 2 -5 -3 -1 -3 2 -2 -2 -0 2 -1 3 -2 -2 -1 4 1 4 4 -2 0 -3 4 -1 -4 -6 -1 0 0 5 -1 -1 1 -0 -4 1 -1 -1 -2 -3 2 2 5 7
-1 -4 -2 1 -4 -1 -4 -1 -0 1 -2 1 0 1 -2 -2 1 1 -1 0 1 1 2 3 0 5 -4 3 3 3 2 1 -1 -4 1 -0 -4 -2 -1 2 1 5 7 4 0 3 6
2 0 -5 -1 -2 -2 -3 -1 -1 1 -1 1 2 1 -1 2 -1 0 -1 0 -2 1 0 2 0 -1 -1 0 -0 -0 -0 1 2 2 7 3 3 1 1 -0 1 1 1 2 -1 1 5
1 1 -6 1 -2 -3 -2 -2 -0 -1 -1 1 1 -1 -1 -0 0 0 2 0 -1 -0 -1 -2 0 1 -0 0 5 4 2 -1 2 3 1 -1 1 1 -0 1 3 3 2 2 0 1 6
-1 -0 -5 2 -2 -1 -2 -3 2 -1 -2 0 -0 0 0 1 -1 2 2 1 1 -0 -0 4 3 1 1 3 2 1 2 2 2 2 2 1 -2 1 2 1 -0 1 0 -2 -5 -1 -4
-3 -0 -1 2 -2 -1 -1 -2 1 -1 -1 2 3 1 -1 -2 -0 2 2 -0 -2 -4 2 0 1 2 -0 2 -1 1 1 -0 1 -1 0 1 -3 1 1 -0 -2 -1 -0 1 1 0 -3
1 -1 2 0 -1 -1 0 1 -1 -0 -0 2 1 0 -2 -1 -0 -0 1 -2 1 1 -1 -1 1 3 -0 0 2 0 1 1 -1 -0 1 2 -0 -1 0 -1 -2 -1 -1 -2 -2 -1 -4
2 1 3 -1 -1 -1 0 2 1 0 1 3 1 1 -0 -1 -1 -2 -1 -1 1 3 4 1 -2 -1 -2 -2 -1 0 0 -0 1 -1 0 0 0 -1 -1 -1 -2 -1 -2 -2 -1 -2 -3
1 2 2 0 -1 0 -1 1 1 1 1 1 3 -1 -1 -1 1 -0 -1 -1 0 4 -0 -1 1 1 1 -0 -2 0 1 1 -0 -0 1 -1 -1 -0 -0 0 -0 -2 -2 -1 0 -3 -0
4 2 3 1 -1 1 1 1 1 -1 -0 3 2 -2 -2 -1 -2 0 -3 -1 -1 -1 1 -0 1 -0 2 -2 1 2 0 -1 1 -1 -1 0 -0 -2 -0 -0 2 0 1 -1 -2 -4 -5
1 2 2 -1 2 1 -1 1 1 -0 3 6 1 -3 -1 2 -0 0 -5 0 2 -1 1 1 1 -0 -1 -1 -0 -0 1 -0 -2 -1 -0 1 -0 0 1 -0 -1 0 -1 3 6 4 1
4 4 3 -0 1 1 1 1 2 0 -1 -0 -5 -4 -4 -0 -2 -8 -0 2 2 1 1 1 -0 0 1 -1 -1 -2 -0 -1 1 0 -1 -1 0 1 2 2 1 -1 -2 -3 -4 -3 -1
9 2 -0 -1 2 1 1 -0 2 -1 -1 -1 -2 -1 6 1 -2 -1 2 1 0 0 1 2 -0 0 -1 -2 2 1 0 1 0 0 0 -0 -1 0 1 3 2 1 -1 -5 -4 -2 -1
3 1 -0 -1 1 1 1 1 6 -1 -4 -1 1 -2 -1 1 -7 0 1 0 0 2 4 2 -2 -1 1 3 3 -0 2 2 2 1 2 1 -0 -2 -1 -2 -1 -0 -0 -0 -1 -1 -2
1 -1 1 -0 1 2 1 2 3 -2 1 -0 -4 3 -1 -2 2 -3 2 -0 -1 4 -2 1 3 1 2 2 -0 -1 -0 -3 -3 -1 -1 -0 0 0 1 -1 -1 3 1 -0 -3 0 -0
1 -0 -0 0 1 1 1 2 2 -2 -1 -5 7 4 4 0 0 2 3 -2 -3 1 -2 0 2 4 4 -3 -1 0 3 2 1 1 1 2 1 0 -0 0 -4 4 3 0 -3 -3 2
1 1 1 1 1 2 2 3 1 0 1 3 -2 1 -0 -3 2 3 -5 -4 2 5 1 1 -0 -0 -1 1 -2 -2 1 -0 4 1 1 1 0 -2 -5 1 -2 0 4 -1 -1 5 -10
3 1 1 -0 0 1 2 3 2 1 0 1 1 1 1 -4 -5 -3 0 -2 -0 2 -2 -0 0 -1 -1 -2 -2 -0 -3 1 0 2 0 3 1 1 -0 -2 -7 9 2 0 -0 7 9
3 0 1 -0 -0 1 3 2 1 -0 -0 -1 2 1 1 2 -2 -0 0 1 2 4 -2 -1 1 1 -0 1 -1 -1 -1 -0 -3 -0 2 -0 -0 -2 -2 -4 3 -9 9 -1 1 -1 0
1 0 1 0 0 1 0 2 0 -0 0 1 -0 2 -0 -1 -1 -0 0 1 1 3 -2 1 -3 1 -0 -3 -2 1 -1 -1 -1 1 2 -0 -1 5 -0 -3 -4 4 -2 1 -1 -0 -4
1 0 1 -1 0 -0 1 0 -2 -1 -0 0 1 -0 -1 -1 1 -2 -1 2 0 -0 1 -2 -0 1 -3 -0 1 -0 -1 -1 2 4 -1 0 0 -2 -2 2 -2 -6 2 -0 3 1 1
Height
5761 5762 5763 5759 5756 5756 5755 5755 5753 5753 5753 5753 5753 5753 5752 5751 5754 5755 5757 5759 5760 5761 5762 5763 5766 5770 5773 5776 5778 5780 5783 5787 5790 5794 5797 5800 5804 5807 5811 5813 5813 5816 5820 5821 5822 5824 5828
5753 5754 5755 5752 5749 5750 5749 5749 5747 5748 5748 5748 5748 5748 5748 5748 5750 5752 5754 5755 5758 5759 5761 5762 5766 5768 5771 5774 5776 5777 5780 5785 5788 5791 5795 5800 5804 5807 5808 5809 5812 5817 5822 5823 5823 5824 5826
5746 5748 5748 5745 5744 5744 5743 5743 5742 5743 5743 5743 5743 5743 5744 5745 5747 5749 5750 5752 5755 5757 5759 5762 5764 5766 5770 5773 5775 5778 5781 5784 5786 5790 5794 5798 5802 5805 5808 5811 5815 5819 5822 5822 5823 5824 5825
5739 5740 5740 5738 5739 5738 5737 5738 5738 5738 5739 5739 5738 5738 5739 5741 5743 5746 5747 5750 5753 5756 5758 5760 5763 5766 5768 5772 5775 5778 5780 5785 5788 5792 5797 5800 5803 5807 5812 5813 5816 5818 5820 5821 5823 5824 5825
5731 5733 5732 5731 5732 5731 5731 5733 5734 5734 5734 5734 5733 5733 5733 5736 5740 5743 5746 5749 5752 5754 5757 5759 5762 5765 5769 5773 5775 5780 5784 5787 5793 5795 5800 5802 5804 5807 5811 5813 5815 5817 5819 5821 5823 5824 5822
5723 5724 5724 5724 5725 5725 5726 5729 5729 5731 5730 5729 5729 5730 5732 5735 5738 5742 5745 5747 5750 5754 5756 5759 5763 5767 5770 5775 5779 5783 5787 5791 5795 5798 5801 5803 5806 5808 5810 5813 5815 5816 5818 5819 5819 5822 5822
5712 5716 5716 5718 5719 5718 5722 5724 5726 5727 5726 5726 5726 5729 5731 5734 5737 5741 5743 5746 5752 5755 5757 5761 5764 5767 5770 5776 5780 5783 5787 5791 5795 5800 5801 5802 5805 5807 5812 5815 5815 5814 5817 5817 5818 5820 5821
5704 5706 5708 5710 5712 5714 5717 5719 5723 5724 5724 5725 5726 5729 5730 5732 5736 5739 5742 5747 5751 5755 5758 5763 5767 5770 5774 5776 5781 5785 5788 5793 5796 5798 5799 5803 5805 5808 5809 5811 5814 5814 5816 5816 5818 5820 5821
5694 5698 5701 5704 5706 5709 5712 5716 5719 5721 5722 5724 5726 5728 5730 5733 5735 5739 5744 5749 5754 5758 5761 5765 5769 5774 5777 5780 5784 5787 5790 5793 5796 5798 5800 5804 5806 5806 5809 5811 5813 5814 5814 5816 5818 5819 5819
5685 5690 5694 5697 5701 5705 5708 5713 5716 5717 5719 5722 5725 5727 5729 5733 5738 5742 5746 5751 5756 5760 5764 5769 5773 5777 5778 5782 5786 5788 5791 5794 5797 5799 5802 5805 5804 5806 5808 5810 5812 5814 5814 5815 5815 5817 5816
5676 5681 5687 5691 5696 5699 5704 5709 5713 5714 5717 5720 5724 5727 5731 5736 5739 5744 5749 5754 5758 5763 5765 5771 5775 5777 5779 5783 5786 5788 5791 5794 5797 5799 5803 5804 5804 5805 5807 5807 5809 5811 5811 5812 5812 5812 5813
5670 5671 5680 5686 5690 5694 5700 5706 5709 5712 5715 5719 5723 5728 5733 5738 5742 5747 5752 5757 5762 5766 5767 5772 5775 5778 5781 5784 5787 5789 5791 5793 5795 5798 5800 5801 5802 5803 5805 5806 5807 5808 5809 5808 5807 5808 5807
5660 5665 5672 5681 5684 5689 5696 5702 5705 5710 5714 5719 5724 5730 5735 5740 5745 5750 5755 5760 5764 5766 5770 5774 5776 5779 5781 5784 5786 5788 5790 5792 5794 5796 5798 5799 5800 5802 5803 5804 5803 5804 5804 5804 5803 5802 5802
5651 5658 5665 5674 5678 5685 5692 5697 5702 5708 5713 5719 5725 5731 5736 5741 5746 5752 5757 5762 5764 5766 5770 5773 5776 5779 5782 5784 5785 5787 5789 5790 5792 5793 5796 5797 5798 5799 5800 5800 5801 5801 5802 5802 5801 5800 5800
5643 5650 5658 5667 5672 5680 5687 5692 5698 5705 5711 5719 5726 5731 5737 5742 5747 5752 5758 5760 5764 5767 5770 5774 5776 5779 5780 5782 5784 5785 5786 5788 5789 5791 5794 5795 5796 5797 5799 5799 5800 5800 5800 5800 5799 5797 5795
5637 5642 5652 5660 5667 5675 5682 5688 5695 5701 5710 5718 5725 5731 5737 5741 5747 5752 5757 5760 5765 5769 5772 5774 5775 5776 5777 5778 5781 5782 5784 5785 5787 5789 5791 5793 5795 5796 5797 5798 5799 5798 5799 5798 5797 5796 5792
5630 5636 5647 5654 5661 5670 5677 5684 5691 5699 5708 5716 5723 5730 5735 5740 5746 5751 5755 5760 5764 5768 5770 5772 5773 5773 5775 5776 5778 5780 5782 5784 5786 5788 5791 5792 5794 5796 5796 5797 5797 5797 5796 5796 5795 5793 5792
5624 5631 5641 5649 5657 5665 5672 5679 5688 5696 5705 5715 5721 5728 5733 5739 5746 5751 5755 5759 5763 5766 5768 5769 5770 5771 5772 5774 5776 5778 5780 5782 5785 5787 5789 5791 5792 5793 5795 5795 5795 5795 5793 5792 5791 5790 5787
5618 5627 5636 5644 5652 5660 5668 5675 5684 5694 5704 5713 5719 5726 5732 5738 5744 5750 5753 5758 5762 5764 5766 5767 5768 5769 5771 5772 5775 5777 5779 5781 5783 5785 5787 5789 5790 5792 5792 5793 5792 5791 5790 5790 5787 5785 5781
5615 5623 5632 5640 5648 5656 5664 5671 5681 5692 5701 5709 5716 5724 5730 5736 5743 5747 5751 5757 5761 5762 5764 5765 5766 5768 5769 5771 5773 5775 5778 5780 5782 5783 5785 5787 5788 5790 5791 5790 5790 5788 5785 5784 5782 5780 5779
5611 5620 5628 5637 5645 5653 5660 5669 5679 5690 5698 5707 5715 5722 5730 5735 5741 5745 5750 5755 5758 5760 5762 5763 5764 5766 5768 5770 5772 5774 5776 5778 5780 5782 5783 5785 5786 5787 5787 5787 5786 5784 5781 5778 5776 5773 5771
5608 5617 5626 5635 5642 5650 5657 5665 5676 5687 5696 5705 5713 5719 5726 5732 5737 5743 5749 5752 5755 5758 5760 5761 5762 5764 5767 5770 5772 5773 5775 5777 5778 5780 5781 5782 5782 5783 5783 5782 5780 5779 5777 5774 5771 5769 5764
5606 5615 5625 5633 5640 5647 5655 5664 5674 5684 5693 5701 5709 5718 5723 5729 5735 5740 5745 5749 5752 5754 5757 5759 5760 5762 5765 5767 5768 5768 5770 5771 5773 5775 5776 5778 5778 5777 5777 5776 5774 5774 5771 5768 5764 5762 5758
5604 5614 5623 5631 5638 5645 5653 5662 5671 5682 5690 5698 5707 5715 5721 5727 5733 5738 5742 5745 5747 5751 5754 5756 5757 5759 5762 5761 5763 5765 5767 5768 5770 5771 5772 5773 5773 5772 5772 5770 5768 5767 5765 5761 5757 5755 5751
5603 5613 5622 5630 5637 5644 5651 5660 5669 5679 5687 5695 5703 5711 5717 5723 5728 5733 5737 5738 5743 5748 5751 5752 5754 5755 5757 5757 5759 5760 5762 5764 5765 5766 5766 5766 5766 5765 5764 5763 5761 5759 5757 5753 5749 5747 5741
5603 5613 5621 5629 5636 5643 5650 5658 5667 5675 5684 5692 5699 5706 5713 5718 5723 5727 5732 5735 5740 5744 5746 5747 5749 5751 5751 5752 5753 5754 5754 5756 5757 5759 5760 5759 5758 5758 5757 5754 5752 5751 5748 5744 5741 5739 5733
5603 5612 5620 5628 5635 5642 5650 5656 5664 5673 5681 5688 5696 5702 5709 5714 5718 5723 5727 5731 5735 5739 5741 5742 5744 5746 5746 5746 5747 5748 5749 5749 5750 5751 5753 5751 5750 5749 5748 5745 5744 5741 5738 5734 5733 5731 5722
5602 5611 5619 5627 5634 5641 5648 5655 5662 5670 5677 5684 5692 5698 5704 5709 5713 5717 5722 5726 5730 5733 5735 5737 5738 5740 5740 5740 5741 5741 5740 5741 5742 5743 5743 5742 5741 5741 5738 5737 5735 5732 5728 5726 5722 5717 5712
5602 5610 5618 5626 5633 5640 5647 5653 5660 5666 5672 5680 5687 5693 5698 5704 5708 5712 5716 5720 5723 5725 5728 5728 5730 5732 5731 5733 5733 5733 5733 5733 5734 5733 5734 5734 5732 5731 5731 5728 5724 5721 5718 5715 5710 5706 5702